Wind_Speed
24 25 26 28 29 30 31 33 34 35 36 36 37 37 38 38 38 38 38 39 39 39 40 40 40 41 42 42 43 43 43 43 43 44 45 45 45 44 42 43 43 41 41
25 27 28 30 32 33 35 36 37 38 38 39 39 39 38 38 38 38 39 38 38 38 39 39 40 41 41 42 43 44 44 44 44 45 45 45 45 45 43 43 44 44 43
27 29 31 33 34 36 37 38 39 40 40 40 40 39 39 39 39 39 38 38 38 38 39 39 40 40 41 42 43 44 45 45 45 46 46 46 46 46 44 44 44 44 45
29 32 34 35 37 38 39 40 41 42 42 41 41 40 39 39 39 39 38 38 38 38 38 39 40 41 41 42 43 44 45 46 46 47 47 47 47 47 46 45 44 43 44
31 34 36 37 39 41 41 42 43 43 42 42 41 40 39 39 38 38 37 37 36 36 37 38 39 41 42 43 44 45 45 46 47 48 48 48 48 48 48 46 45 44 43
34 36 38 40 41 42 43 43 43 43 43 42 41 40 39 38 38 37 36 35 35 35 35 36 37 38 40 42 43 45 47 47 48 49 50 50 50 49 50 49 47 46 45
36 38 40 42 43 44 44 44 44 43 42 41 40 38 37 37 37 36 35 34 34 34 34 35 36 36 38 40 42 43 44 46 48 49 50 51 51 51 51 50 51 48 47
37 39 41 43 44 44 45 44 44 43 41 40 39 37 36 36 35 34 34 33 33 33 34 34 35 36 37 38 39 41 42 44 47 49 50 51 51 52 53 51 51 50 49
39 41 43 44 45 45 45 44 44 42 40 39 38 37 36 35 34 33 33 32 32 32 33 33 34 35 36 37 38 38 39 41 44 47 49 51 52 52 54 53 53 52 49
41 43 44 45 46 46 45 45 43 41 40 38 37 36 35 34 34 33 32 31 31 30 30 31 31 32 34 34 35 37 37 39 42 45 47 50 52 53 54 55 53 52 51
43 45 46 46 47 46 46 44 43 41 39 37 37 36 34 33 32 31 29 28 28 28 27 28 29 29 30 31 33 35 36 38 40 42 45 47 50 53 54 55 54 52 52
45 46 47 47 47 47 46 44 42 40 38 37 36 34 33 32 31 29 28 27 27 27 26 26 27 27 28 29 30 33 35 37 39 41 43 45 48 51 53 54 54 53 51
46 47 48 48 47 47 46 43 41 40 38 37 35 33 33 31 30 28 27 26 26 25 25 25 24 24 24 25 28 31 34 36 38 40 42 44 46 49 50 52 54 55 52
47 48 49 48 48 46 45 43 41 39 37 35 34 32 31 31 30 28 27 26 25 24 23 22 20 19 19 21 23 26 29 33 36 39 41 43 45 47 49 50 51 54 53
48 50 50 49 47 45 43 42 40 38 36 34 33 32 31 30 29 27 26 24 23 23 22 19 17 16 15 15 17 20 23 28 32 35 39 42 44 46 47 49 49 50 53
50 51 50 49 47 44 42 41 39 37 36 34 32 31 30 29 28 26 25 24 22 21 19 16 14 12 10 10 12 15 19 22 27 31 35 39 42 44 46 46 47 47 50
50 50 50 48 46 44 42 39 37 36 34 33 31 31 30 29 27 25 24 23 21 19 17 14 12 9 8 8 9 12 15 19 23 29 32 35 38 41 43 44 44 45 46
50 50 48 47 45 43 41 38 36 34 32 31 30 30 30 28 27 25 24 22 20 18 16 13 10 8 7 7 7 9 12 16 20 25 30 32 35 37 40 42 42 42 43
50 49 47 46 43 41 39 36 34 32 30 30 29 29 28 27 26 25 23 21 19 17 15 12 9 7 6 6 6 8 11 15 19 23 27 29 32 34 35 38 40 41 42
49 47 46 44 42 39 37 34 31 30 28 28 28 28 27 26 25 23 21 19 17 16 13 11 8 6 5 5 6 8 11 14 19 22 25 28 29 31 33 35 37 38 39
48 46 45 42 39 37 34 31 29 27 26 26 26 26 26 25 23 21 19 17 16 15 12 9 7 5 4 4 5 8 10 13 17 21 24 26 29 31 33 33 35 36 38
47 45 43 40 37 34 32 29 27 25 24 24 24 24 24 23 21 19 18 16 14 13 11 8 6 4 3 4 5 8 11 14 16 18 22 24 27 30 32 32 33 34 35
44 43 40 37 34 32 29 26 24 23 23 22 21 22 22 21 19 17 16 15 13 12 10 8 5 3 2 4 6 8 11 14 16 18 20 22 24 27 29 30 32 33 33
43 40 38 34 32 29 27 24 22 21 20 19 19 20 20 20 18 16 15 13 12 10 8 6 4 2 2 4 7 9 11 13 15 17 19 21 22 25 27 28 30 32 32
41 38 35 32 29 26 24 22 20 19 18 17 17 17 17 17 16 15 13 12 10 9 8 6 3 1 1 4 7 9 11 13 15 16 18 20 21 23 24 27 29 30 31
38 35 32 29 26 23 21 20 19 17 16 15 15 15 15 15 14 13 12 10 9 8 7 6 3 0 2 4 7 8 10 13 15 15 17 18 20 22 23 25 27 28 30
Wind_Direction
322 322 322 322 321 320 319 317 315 313 310 308 306 303 300 296 292 288 285 282 278 274 271 268 265 262 259 256 253 250 248 246 243 242 240 239 237 236 235 233 232 231 229
324 324 323 323 322 321 319 318 316 313 311 309 307 305 301 298 294 290 286 283 279 275 271 267 264 262 259 256 253 250 248 246 243 241 240 238 236 235 234 233 232 230 230
326 326 325 324 323 322 321 319 317 315 313 310 308 305 303 299 296 292 288 283 279 275 271 267 264 262 259 256 253 250 248 246 243 241 239 237 235 233 232 231 231 230 229
328 328 327 326 325 324 322 321 319 317 314 311 309 306 304 300 297 293 289 285 281 276 272 268 265 262 259 256 253 251 248 246 243 241 238 236 234 232 231 231 229 227 228
328 328 328 327 326 326 324 322 320 318 316 313 311 308 305 302 299 296 292 288 284 279 274 271 267 264 260 256 253 251 248 245 242 240 238 235 233 231 230 229 228 227 226
329 328 328 328 327 326 325 324 322 320 318 315 313 310 308 305 302 298 294 290 286 281 277 274 270 266 262 258 255 251 248 244 241 238 236 234 231 229 228 228 228 227 225
329 328 328 328 327 327 326 325 324 322 320 318 316 313 310 308 305 302 297 293 288 283 279 276 273 269 264 259 255 251 248 244 240 237 234 232 230 227 227 227 227 227 226
329 329 329 329 328 328 327 327 326 324 322 320 318 315 313 310 308 304 300 295 291 287 283 278 274 270 265 259 255 250 246 242 239 235 233 231 228 226 225 225 225 225 225
329 330 331 330 330 329 328 328 327 325 324 322 320 318 315 312 310 308 303 299 294 289 285 280 275 270 264 258 253 248 244 240 236 233 231 229 227 225 223 223 223 222 223
330 331 332 331 331 330 330 329 328 326 325 323 322 320 318 316 314 311 307 303 298 293 289 284 278 271 265 259 252 247 242 238 235 232 230 228 226 225 223 222 222 222 222
330 331 332 332 331 331 330 330 328 327 326 325 324 323 321 319 317 314 311 309 305 299 293 288 282 274 267 259 252 245 240 236 234 231 228 226 225 224 224 223 222 221 221
329 330 331 331 331 331 331 330 329 328 327 326 326 325 324 322 320 317 314 311 309 305 299 293 287 279 269 259 251 243 239 236 232 230 227 224 223 222 223 223 221 220 221
328 330 330 331 331 331 331 330 329 328 328 328 327 326 325 324 322 319 317 315 313 310 306 300 292 283 271 259 250 244 240 236 231 228 226 223 221 220 221 221 222 220 219
327 328 329 329 330 330 330 330 330 329 328 328 329 328 327 325 324 321 319 318 316 313 311 307 297 288 274 260 250 244 238 233 229 226 224 221 219 218 219 219 220 219 218
326 327 328 328 329 329 329 330 329 329 329 329 329 330 329 328 326 324 322 321 319 317 314 310 303 293 278 260 248 240 234 229 225 222 220 218 217 217 217 216 217 218 217
324 325 325 326 327 328 328 328 328 329 329 329 330 331 332 331 330 328 326 324 322 320 317 313 308 299 282 260 244 234 229 225 221 217 215 214 214 214 215 215 216 216 215
321 322 323 324 325 326 327 327 327 327 328 329 330 331 333 332 332 331 330 330 327 324 321 315 307 300 286 266 248 235 225 219 216 211 209 209 209 211 213 212 213 214 215
318 319 320 321 322 323 324 325 326 326 327 329 330 331 333 333 333 332 331 332 332 330 327 319 307 295 284 270 249 233 221 211 207 205 203 204 205 207 208 209 210 212 213
315 317 318 319 320 321 322 323 324 324 325 328 330 331 333 334 335 334 333 333 334 334 332 327 312 295 278 261 238 219 206 200 198 198 197 198 201 203 204 206 208 209 211
312 313 314 315 316 317 319 320 321 322 324 326 329 331 333 335 336 336 336 334 334 334 333 329 318 299 273 251 231 214 201 194 193 193 192 195 198 200 201 203 205 206 207
310 311 312 312 312 313 315 316 318 319 321 324 327 330 332 335 337 337 337 335 334 334 334 329 321 305 271 231 216 199 191 188 188 190 191 192 194 195 197 200 203 204 206
307 308 309 310 309 309 311 312 314 316 318 321 324 328 332 335 337 337 338 337 335 336 336 333 323 301 253 209 199 196 190 185 183 184 187 188 189 192 194 197 201 202 203
304 305 305 306 305 305 306 307 309 312 314 318 322 327 331 334 337 337 337 338 338 339 341 337 323 295 237 203 186 181 182 181 181 182 185 189 191 191 193 196 198 197 200
300 301 301 301 300 300 301 302 304 307 310 314 319 324 329 333 336 338 337 338 340 342 344 344 336 306 231 200 186 180 178 177 179 181 184 188 191 192 193 194 195 196 198
297 297 296 296 295 295 294 295 298 301 305 309 315 321 327 332 335 338 336 337 340 344 350 355 347 300 215 200 190 185 181 178 178 181 183 185 188 191 191 192 194 195 198
292 292 290 289 288 287 287 289 291 294 297 303 309 316 322 329 333 338 340 338 340 341 347 355 357 312 184 186 184 181 182 182 181 182 183 183 186 188 189 190 192 195 197
Height
5814 5809 5805 5800 5796 5791 5786 5780 5775 5770 5765 5759 5754 5749 5745 5741 5737 5733 5730 5728 5726 5724 5723 5722 5722 5722 5723 5725 5726 5729 5731 5734 5738 5741 5745 5749 5754 5758 5763 5768 5773 5777 5782
5809 5804 5799 5794 5789 5783 5778 5772 5766 5760 5754 5749 5743 5738 5733 5729 5725 5721 5718 5715 5713 5711 5710 5709 5709 5709 5710 5712 5713 5716 5719 5722 5726 5730 5733 5738 5743 5748 5753 5758 5763 5768 5773
5803 5798 5792 5787 5781 5775 5769 5763 5757 5750 5744 5738 5732 5727 5722 5717 5712 5708 5705 5703 5700 5698 5697 5696 5696 5696 5697 5698 5700 5703 5706 5709 5713 5718 5722 5727 5732 5737 5743 5748 5754 5759 5764
5797 5791 5786 5780 5773 5767 5761 5754 5747 5740 5734 5727 5721 5715 5710 5705 5700 5696 5693 5690 5687 5685 5684 5683 5683 5683 5684 5685 5687 5689 5692 5696 5700 5705 5710 5715 5720 5726 5732 5738 5744 5749 5754
5790 5785 5779 5772 5766 5759 5752 5745 5737 5730 5723 5717 5710 5704 5698 5693 5688 5684 5680 5677 5674 5672 5670 5669 5669 5669 5669 5671 5673 5675 5678 5682 5686 5691 5697 5703 5709 5715 5721 5728 5734 5740 5745
5784 5778 5772 5765 5758 5750 5743 5736 5728 5720 5713 5706 5699 5693 5687 5681 5677 5672 5668 5664 5661 5659 5657 5656 5655 5655 5655 5656 5658 5661 5664 5668 5673 5678 5684 5690 5696 5703 5710 5716 5723 5730 5736
5778 5771 5764 5757 5750 5742 5734 5726 5718 5711 5703 5696 5689 5682 5676 5670 5665 5660 5656 5652 5649 5647 5644 5643 5641 5641 5641 5642 5643 5645 5649 5653 5658 5664 5670 5677 5684 5691 5698 5705 5712 5718 5726
5771 5764 5757 5749 5741 5733 5725 5717 5709 5701 5694 5686 5679 5673 5666 5660 5655 5650 5645 5641 5638 5635 5632 5630 5628 5627 5627 5627 5629 5631 5635 5639 5644 5650 5657 5664 5670 5677 5686 5693 5700 5707 5715
5764 5757 5749 5741 5733 5725 5716 5708 5700 5692 5685 5677 5670 5663 5657 5651 5645 5639 5634 5630 5626 5623 5620 5617 5615 5614 5613 5614 5616 5618 5622 5625 5630 5637 5643 5650 5657 5665 5674 5682 5689 5697 5705
5757 5749 5741 5733 5725 5716 5708 5700 5692 5684 5676 5669 5661 5654 5648 5641 5635 5630 5624 5620 5616 5612 5608 5605 5603 5601 5601 5601 5603 5606 5609 5613 5618 5624 5631 5638 5646 5654 5662 5671 5679 5687 5694
5749 5741 5733 5725 5717 5708 5700 5692 5683 5675 5668 5661 5653 5646 5639 5633 5627 5621 5616 5611 5606 5602 5598 5595 5592 5590 5589 5589 5591 5594 5597 5601 5606 5612 5619 5626 5634 5643 5651 5659 5668 5677 5685
5741 5733 5725 5717 5709 5700 5692 5684 5676 5668 5660 5653 5646 5639 5632 5625 5619 5613 5608 5603 5598 5593 5589 5585 5582 5579 5578 5578 5580 5583 5586 5590 5595 5601 5608 5615 5624 5632 5640 5649 5658 5667 5675
5733 5725 5717 5709 5700 5692 5684 5676 5668 5661 5653 5646 5639 5632 5625 5618 5612 5606 5601 5596 5590 5585 5581 5576 5572 5569 5568 5568 5569 5572 5575 5580 5585 5591 5598 5605 5613 5621 5630 5639 5647 5656 5665
5724 5717 5709 5701 5693 5684 5676 5668 5661 5653 5646 5639 5632 5625 5619 5612 5606 5600 5594 5589 5584 5579 5574 5569 5565 5562 5560 5559 5560 5562 5565 5570 5574 5580 5587 5595 5603 5611 5620 5629 5637 5646 5656
5716 5708 5700 5693 5685 5677 5669 5661 5654 5647 5639 5633 5626 5620 5613 5607 5600 5594 5588 5583 5578 5573 5568 5563 5559 5556 5554 5553 5553 5555 5557 5560 5565 5571 5577 5585 5594 5602 5611 5620 5629 5637 5647
5707 5700 5692 5684 5677 5669 5662 5655 5647 5641 5634 5627 5620 5614 5608 5601 5595 5589 5583 5578 5573 5568 5563 5558 5555 5552 5550 5549 5549 5550 5552 5555 5558 5563 5570 5577 5586 5594 5603 5612 5621 5629 5638
5698 5691 5684 5676 5669 5662 5655 5648 5641 5635 5628 5621 5615 5609 5603 5597 5591 5585 5579 5573 5568 5563 5559 5555 5552 5550 5548 5547 5546 5547 5548 5550 5553 5558 5564 5572 5579 5588 5596 5605 5613 5622 5631
5689 5682 5675 5668 5661 5655 5648 5641 5635 5629 5623 5617 5611 5604 5598 5592 5586 5580 5575 5570 5565 5560 5556 5552 5550 5548 5546 5545 5545 5545 5545 5547 5550 5554 5560 5567 5574 5582 5590 5598 5607 5615 5624
5680 5673 5666 5660 5653 5647 5641 5635 5629 5623 5617 5612 5606 5600 5594 5588 5583 5577 5571 5566 5562 5557 5553 5550 5547 5546 5545 5544 5543 5544 5544 5546 5549 5553 5558 5564 5571 5578 5585 5593 5601 5609 5617
5670 5664 5657 5651 5645 5640 5634 5629 5623 5618 5612 5607 5602 5596 5591 5585 5579 5574 5568 5563 5559 5555 5551 5548 5546 5544 5543 5543 5543 5543 5544 5546 5548 5552 5557 5562 5568 5575 5582 5589 5596 5604 5612
5659 5653 5648 5642 5637 5632 5627 5623 5618 5612 5608 5603 5598 5593 5588 5582 5577 5571 5566 5562 5557 5554 5550 5547 5545 5543 5542 5542 5542 5543 5544 5546 5548 5552 5556 5561 5566 5572 5579 5585 5592 5599 5607
5648 5643 5638 5633 5629 5624 5620 5616 5612 5607 5603 5599 5595 5590 5584 5579 5574 5569 5564 5560 5556 5552 5549 5546 5544 5542 5542 5541 5542 5542 5544 5546 5549 5551 5555 5559 5564 5570 5576 5582 5589 5595 5602
5636 5632 5628 5624 5620 5616 5613 5609 5606 5602 5598 5594 5591 5586 5582 5577 5572 5567 5563 5559 5555 5551 5548 5546 5544 5542 5542 5542 5542 5543 5544 5546 5549 5552 5555 5559 5563 5568 5574 5579 5585 5592 5598
5625 5621 5618 5614 5611 5608 5605 5602 5600 5596 5593 5590 5587 5583 5579 5574 5570 5565 5561 5557 5554 5551 5548 5545 5543 5542 5541 5541 5542 5543 5544 5546 5549 5552 5555 5558 5562 5566 5571 5577 5583 5589 5595
5613 5610 5607 5605 5602 5600 5598 5596 5593 5591 5588 5586 5583 5580 5576 5572 5568 5564 5560 5557 5553 5550 5548 5545 5544 5542 5542 5542 5542 5543 5545 5547 5549 5551 5554 5558 5561 5565 5570 5575 5580 5586 5592
5601 5599 5597 5595 5593 5592 5590 5589 5587 5585 5583 5581 5579 5576 5573 5570 5566 5563 5559 5556 5553 5550 5548 5546 5544 5542 5542 5542 5543 5544 5545 5547 5549 5551 5554 5557 5561 5565 5569 5573 5578 5584 5589